This is the latest recevied weather packets stored in our database for station/object EA1IOK-13. If no packets are shown the sender has not sent any weather packets the latest 10 day(s).
| Time | Temp. | Humidity | Pressure | Rain* | Wind** | Luminosity | Snow |
|---|---|---|---|---|---|---|---|
| 1778127650 | 6.11° C | 96% | 1010.8 hPa | 0 mm | - | - | - |
| 1778126757 | 6.11° C | 96% | 1010.7 hPa | 0 mm | - | - | - |
| 1778124950 | 6.67° C | 95% | 1011.1 hPa | 0 mm | - | - | - |
| 1778122288 | 7.22° C | 94% | 1011.1 hPa | 0 mm | - | - | - |
| 1778122249 | 7.22° C | 94% | 1011.1 hPa | 0 mm | - | - | - |
| 1778121350 | 7.22° C | 94% | 1011.2 hPa | 0 mm | - | - | - |
| 1778119549 | 7.78° C | 94% | 1011.3 hPa | 0 mm | - | - | - |
| 1778118650 | 7.22° C | 93% | 1011.4 hPa | 0 mm | - | - | - |
| 1778117749 | 7.78° C | 93% | 1011.5 hPa | 0 mm | - | - | - |
| 1778116888 | 7.22° C | 93% | 1011.5 hPa | 0 mm | - | - | - |
| 1778116851 | 7.22° C | 93% | 1011.5 hPa | 0 mm | - | - | - |
| 1778114375 | 7.22° C | 93% | 1011.8 hPa | 0 mm | - | - | - |
| 1778114148 | 7.22° C | 93% | 1011.8 hPa | 0 mm | - | - | - |
| 1778112478 | 7.78° C | 92% | 1011.9 hPa | 0 mm | - | - | - |
| 1778112349 | 7.78° C | 92% | 1011.9 hPa | 0 mm | - | - | - |
| 1778110550 | 8.33° C | 90% | 1012 hPa | 0 mm | - | - | - |
| 1778108880 | 8.89° C | 90% | 1012.1 hPa | 0 mm | - | - | - |
| 1778108750 | 8.89° C | 90% | 1012.1 hPa | 0 mm | - | - | - |
| 1778107851 | 8.89° C | 89% | 1012.2 hPa | 0 mm | - | - | - |
| 1778106948 | 8.89° C | 89% | 1012.1 hPa | 0 mm | - | - | - |
| 1778106054 | 9.44° C | 88% | 1012.1 hPa | 0 mm | - | - | - |
| 1778105148 | 9.44° C | 88% | 1012.1 hPa | 0 mm | - | - | - |
| 1778104251 | 9.44° C | 87% | 1012.1 hPa | 0 mm | - | - | - |
| 1778103349 | 9.44° C | 87% | 1012.2 hPa | 0 mm | - | - | - |
| 1778101552 | 10° C | 86% | 1012.3 hPa | 0 mm | - | - | - |
* Rain latest hour (hover to see other rain measurements)
** Current wind speed in m/s (hover to see current wind gust speed)